Wetterdaten: aktuell Samstag, 11.07.2020 04:00
Datum Zeit Temp. A. Feuchte A. Luftdruck Regen Wind Richtung Richtung Sonnenschein T Regen Solar Taupunkt Windchill Windben Empfang
11.07.2020 04:00 15,7 C 85 % 1016,2 hPa 0,0 l/m 0,0 km/h (0 Bft) S 180 0 min 0 min 1 W/m 13,2 C 15,7 C 0,0 km/h (0 Bft) 100 %
11.07.2020 03:59 15,7 C 85 % 1016,2 hPa 0,0 l/m 0,0 km/h (0 Bft) S 180 0 min 0 min 1 W/m 13,2 C 15,7 C 0,0 km/h (0 Bft) 100 %
11.07.2020 03:58 15,7 C 85 % 1016,3 hPa 0,0 l/m 0,3 km/h (0 Bft) S 180 0 min 0 min 1 W/m 13,2 C 15,7 C 1,6 km/h (1 Bft) 100 %
11.07.2020 03:57 15,8 C 84 % 1016,2 hPa 0,0 l/m 0,0 km/h (0 Bft) S 180 0 min 0 min 1 W/m 13,1 C 15,8 C 0,0 km/h (0 Bft) 100 %
11.07.2020 03:56 15,8 C 84 % 1016,3 hPa 0,0 l/m 0,4 km/h (0 Bft) S 180 0 min 0 min 1 W/m 13,1 C 15,8 C 1,6 km/h (1 Bft) 96 %
11.07.2020 03:55 15,8 C 84 % 1016,2 hPa 0,0 l/m 0,6 km/h (0 Bft) S 180 0 min 0 min 1 W/m 13,1 C 15,8 C 1,6 km/h (1 Bft) 100 %
11.07.2020 03:54 15,8 C 84 % 1016,3 hPa 0,0 l/m 1,9 km/h (1 Bft) S 180 0 min 0 min 1 W/m 13,1 C 15,8 C 3,2 km/h (1 Bft) 96 %
11.07.2020 03:53 15,9 C 84 % 1016,2 hPa 0,0 l/m 1,7 km/h (1 Bft) S 180 0 min 0 min 1 W/m 13,2 C 15,9 C 3,2 km/h (1 Bft) 96 %
11.07.2020 03:52 15,9 C 83 % 1016,2 hPa 0,3 l/m 2,5 km/h (1 Bft) S 180 0 min 2 min 1 W/m 13,0 C 15,9 C 3,2 km/h (1 Bft) 98 %
11.07.2020 03:50 16,0 C 82 % 1016,2 hPa 0,0 l/m 2,0 km/h (1 Bft) S 180 0 min 0 min 3 W/m 12,9 C 16,0 C 3,2 km/h (1 Bft) 100 %
11.07.2020 03:49 16,1 C 82 % 1016,2 hPa 0,0 l/m 2,7 km/h (1 Bft) S 180 0 min 0 min 3 W/m 13,0 C 16,1 C 4,8 km/h (1 Bft) 96 %
11.07.2020 03:48 16,1 C 83 % 1016,3 hPa 0,0 l/m 2,1 km/h (1 Bft) S 180 0 min 0 min 1 W/m 13,2 C 16,1 C 3,2 km/h (1 Bft) 96 %
11.07.2020 03:47 16,2 C 83 % 1016,4 hPa 0,0 l/m 3,4 km/h (1 Bft) S 180 0 min 0 min 1 W/m 13,3 C 16,2 C 4,8 km/h (1 Bft) 100 %
11.07.2020 03:46 16,2 C 83 % 1016,4 hPa 0,0 l/m 1,1 km/h (1 Bft) S 180 0 min 0 min 1 W/m 13,3 C 16,2 C 3,2 km/h (1 Bft) 96 %
11.07.2020 03:45 16,3 C 83 % 1016,5 hPa 0,0 l/m 1,6 km/h (1 Bft) S 180 0 min 0 min 1 W/m 13,4 C 16,3 C 3,2 km/h (1 Bft) 100 %
11.07.2020 03:44 16,3 C 83 % 1016,5 hPa 0,0 l/m 2,1 km/h (1 Bft) S 180 0 min 0 min 1 W/m 13,4 C 16,3 C 3,2 km/h (1 Bft) 100 %
11.07.2020 03:43 16,3 C 83 % 1016,5 hPa 0,0 l/m 2,3 km/h (1 Bft) S 180 0 min 0 min 1 W/m 13,4 C 16,3 C 3,2 km/h (1 Bft) 100 %
11.07.2020 03:42 16,3 C 83 % 1016,5 hPa 0,0 l/m 1,9 km/h (1 Bft) S 180 0 min 0 min 1 W/m 13,4 C 16,3 C 3,2 km/h (1 Bft) 100 %
11.07.2020 03:41 16,4 C 83 % 1016,5 hPa 0,0 l/m 1,7 km/h (1 Bft) S 180 0 min 0 min 1 W/m 13,5 C 16,4 C 3,2 km/h (1 Bft) 100 %
11.07.2020 03:40 16,4 C 83 % 1016,5 hPa 0,0 l/m 1,5 km/h (1 Bft) S 180 0 min 0 min 1 W/m 13,5 C 16,4 C 3,2 km/h (1 Bft) 100 %
11.07.2020 03:39 16,4 C 83 % 1016,5 hPa 0,0 l/m 1,6 km/h (1 Bft) S 180 0 min 0 min 1 W/m 13,5 C 16,4 C 3,2 km/h (1 Bft) 100 %
11.07.2020 03:38 16,4 C 82 % 1016,5 hPa 0,0 l/m 2,5 km/h (1 Bft) S 180 0 min 0 min 3 W/m 13,3 C 16,4 C 4,8 km/h (1 Bft) 100 %
11.07.2020 03:37 16,5 C 82 % 1016,5 hPa 0,0 l/m 1,5 km/h (1 Bft) S 180 0 min 0 min 3 W/m 13,4 C 16,5 C 3,2 km/h (1 Bft) 96 %
11.07.2020 03:36 16,6 C 82 % 1016,5 hPa 0,0 l/m 0,3 km/h (0 Bft) S 180 0 min 0 min 3 W/m 13,5 C 16,6 C 1,6 km/h (1 Bft) 100 %
11.07.2020 03:35 16,6 C 82 % 1016,5 hPa 0,0 l/m 1,7 km/h (1 Bft) S 180 0 min 0 min 3 W/m 13,5 C 16,6 C 3,2 km/h (1 Bft) 96 %
11.07.2020 03:34 16,6 C 82 % 1016,5 hPa 0,0 l/m 1,0 km/h (0 Bft) S 180 0 min 0 min 3 W/m 13,5 C 16,6 C 1,6 km/h (1 Bft) 100 %
11.07.2020 03:33 16,6 C 82 % 1016,5 hPa 0,0 l/m 1,8 km/h (1 Bft) S 180 0 min 0 min 3 W/m 13,5 C 16,6 C 3,2 km/h (1 Bft) 96 %
11.07.2020 03:32 16,7 C 81 % 1016,5 hPa 0,3 l/m 2,1 km/h (1 Bft) S 180 0 min 2 min 3 W/m 13,4 C 16,7 C 3,2 km/h (1 Bft) 98 %
11.07.2020 03:30 16,7 C 80 % 1016,6 hPa 0,0 l/m 0,1 km/h (0 Bft) S 180 0 min 0 min 3 W/m 13,2 C 16,7 C 1,6 km/h (1 Bft) 91 %
11.07.2020 03:29 16,8 C 79 % 1016,6 hPa 0,0 l/m 1,0 km/h (0 Bft) S 180 0 min 0 min 3 W/m 13,1 C 16,8 C 1,6 km/h (1 Bft) 100 %
11.07.2020 03:28 16,8 C 79 % 1016,7 hPa 0,0 l/m 1,9 km/h (1 Bft) S 180 0 min 0 min 3 W/m 13,1 C 16,8 C 3,2 km/h (1 Bft) 96 %
11.07.2020 03:27 16,8 C 78 % 1016,6 hPa 0,0 l/m 2,6 km/h (1 Bft) S 180 0 min 0 min 3 W/m 12,9 C 16,8 C 4,8 km/h (1 Bft) 100 %
11.07.2020 03:26 16,9 C 78 % 1016,6 hPa 0,0 l/m 4,1 km/h (1 Bft) S 180 0 min 0 min 3 W/m 13,0 C 16,9 C 4,8 km/h (1 Bft) 91 %
11.07.2020 03:25 16,9 C 78 % 1016,6 hPa 0,0 l/m 4,0 km/h (1 Bft) S 180 0 min 0 min 3 W/m 13,0 C 16,9 C 6,4 km/h (2 Bft) 100 %
11.07.2020 03:24 17,0 C 78 % 1016,7 hPa 0,0 l/m 3,0 km/h (1 Bft) S 180 0 min 0 min 3 W/m 13,1 C 17,0 C 4,8 km/h (1 Bft) 96 %
11.07.2020 03:23 17,1 C 77 % 1016,6 hPa 0,0 l/m 3,7 km/h (1 Bft) S 180 0 min 0 min 3 W/m 13,0 C 17,1 C 6,4 km/h (2 Bft) 96 %
11.07.2020 03:22 17,1 C 77 % 1016,7 hPa 0,0 l/m 3,0 km/h (1 Bft) S 180 0 min 0 min 3 W/m 13,0 C 17,1 C 4,8 km/h (1 Bft) 96 %
11.07.2020 03:20 17,2 C 78 % 1016,7 hPa 0,0 l/m 3,4 km/h (1 Bft) S 180 0 min 0 min 1 W/m 13,3 C 17,2 C 4,8 km/h (1 Bft) 96 %
11.07.2020 03:19 17,3 C 78 % 1016,8 hPa 0,0 l/m 1,7 km/h (1 Bft) S 180 0 min 0 min 1 W/m 13,4 C 17,3 C 3,2 km/h (1 Bft) 96 %
11.07.2020 03:18 17,3 C 77 % 1016,7 hPa 0,3 l/m 0,3 km/h (0 Bft) S 180 0 min 1 min 1 W/m 13,2 C 17,3 C 1,6 km/h (1 Bft) 96 %
11.07.2020 03:17 17,3 C 77 % 1016,8 hPa 0,0 l/m 0,9 km/h (0 Bft) S 180 0 min 0 min 1 W/m 13,2 C 17,3 C 1,6 km/h (1 Bft) 100 %
11.07.2020 03:16 17,3 C 77 % 1016,8 hPa 0,0 l/m 1,5 km/h (1 Bft) S 180 0 min 0 min 1 W/m 13,2 C 17,3 C 3,2 km/h (1 Bft) 96 %
11.07.2020 03:15 17,4 C 77 % 1016,7 hPa 0,0 l/m 3,4 km/h (1 Bft) S 180 0 min 0 min 1 W/m 13,3 C 17,4 C 6,4 km/h (2 Bft) 100 %
11.07.2020 03:14 17,4 C 76 % 1016,8 hPa 0,0 l/m 3,1 km/h (1 Bft) S 180 0 min 0 min 1 W/m 13,1 C 17,4 C 4,8 km/h (1 Bft) 100 %
11.07.2020 03:13 17,5 C 76 % 1016,8 hPa 0,0 l/m 3,9 km/h (1 Bft) S 180 0 min 0 min 1 W/m 13,2 C 17,5 C 4,8 km/h (1 Bft) 100 %
11.07.2020 03:12 17,5 C 75 % 1016,9 hPa 0,0 l/m 3,7 km/h (1 Bft) S 180 0 min 0 min 1 W/m 13,0 C 17,5 C 8,0 km/h (2 Bft) 100 %
11.07.2020 03:10 17,6 C 75 % 1017,0 hPa 0,0 l/m 5,7 km/h (1 Bft) S 180 0 min 0 min 1 W/m 13,1 C 17,6 C 9,7 km/h (2 Bft) 100 %
11.07.2020 03:09 17,6 C 75 % 1017,0 hPa 0,3 l/m 5,7 km/h (1 Bft) S 180 0 min 1 min 1 W/m 13,1 C 17,6 C 8,0 km/h (2 Bft) 100 %
11.07.2020 03:08 17,7 C 74 % 1017,0 hPa 0,0 l/m 4,0 km/h (1 Bft) S 180 0 min 0 min 1 W/m 13,0 C 17,7 C 6,4 km/h (2 Bft) 100 %
11.07.2020 03:07 17,7 C 74 % 1016,9 hPa 0,0 l/m 4,6 km/h (1 Bft) S 180 0 min 0 min 1 W/m 13,0 C 17,7 C 8,0 km/h (2 Bft) 100 %
11.07.2020 03:06 17,7 C 74 % 1016,9 hPa 0,0 l/m 5,5 km/h (1 Bft) S 180 0 min 0 min 1 W/m 13,0 C 17,7 C 9,7 km/h (2 Bft) 100 %
11.07.2020 03:05 17,7 C 73 % 1016,9 hPa 0,0 l/m 1,7 km/h (1 Bft) S 180 0 min 0 min 1 W/m 12,8 C 17,7 C 3,2 km/h (1 Bft) 100 %
11.07.2020 03:04 17,7 C 73 % 1016,9 hPa 0,0 l/m 3,6 km/h (1 Bft) S 180 0 min 0 min 1 W/m 12,8 C 17,7 C 6,4 km/h (2 Bft) 100 %
11.07.2020 03:03 17,7 C 73 % 1016,8 hPa 0,0 l/m 0,3 km/h (0 Bft) S 180 0 min 0 min 1 W/m 12,8 C 17,7 C 1,6 km/h (1 Bft) 100 %
11.07.2020 03:02 17,7 C 72 % 1016,9 hPa 0,0 l/m 1,8 km/h (1 Bft) S 180 0 min 0 min 1 W/m 12,6 C 17,7 C 3,2 km/h (1 Bft) 100 %
11.07.2020 03:01 17,7 C 72 % 1016,8 hPa 0,0 l/m 3,1 km/h (1 Bft) S 180 0 min 0 min 1 W/m 12,6 C 17,7 C 6,4 km/h (2 Bft) 100 %
11.07.2020 03:00 17,8 C 71 % 1016,8 hPa 0,0 l/m 7,1 km/h (2 Bft) S 180 0 min 0 min 1 W/m 12,5 C 17,5 C 11,3 km/h (2 Bft) 100 %
11.07.2020 02:59 17,8 C 71 % 1016,8 hPa 0,0 l/m 5,0 km/h (1 Bft) S 180 0 min 0 min 1 W/m 12,5 C 17,8 C 8,0 km/h (2 Bft) 100 %
11.07.2020 02:58 17,8 C 71 % 1016,7 hPa 0,0 l/m 4,8 km/h (1 Bft) S 180 0 min 0 min 3 W/m 12,5 C 17,8 C 9,7 km/h (2 Bft) 100 %
11.07.2020 02:57 17,8 C 71 % 1016,8 hPa 0,0 l/m 1,9 km/h (1 Bft) S 180 0 min 0 min 3 W/m 12,5 C 17,8 C 3,2 km/h (1 Bft) 100 %
11.07.2020 02:56 17,8 C 70 % 1016,7 hPa 0,0 l/m 3,6 km/h (1 Bft) S 180 0 min 0 min 3 W/m 12,3 C 17,8 C 6,4 km/h (2 Bft) 96 %
_ Min-Zeit 06:06 14:41 14:18 - 05:06 - - - - - 20:45 06:06 05:06 23:48
Minimum _ 13,9 C 41 % 1010,2 hPa - 0,0 km/h (0 Bft) - - - - - 10,7 C 13,9 C 0,0 km/h (0 Bft) 67 %
_ Max-Zeit 14:38 06:16 03:08 03:09 13:36 - - 05:42 03:32 14:12 09:47 15:03 11:43 05:00
Maximum _ 28,6 C 86 % 1017,0 hPa 0,3 l/m 25,5 km/h
W (4 Bft)
- - 2 min 2 min 1038 W/m 16,2 C 28,4 C 38,6 km/h
NW (5 Bft)
100 %
Durchschnitt _ 21,3 C 61 % 1012,7 hPa #1,0 l/m 6,5 km/h (2 Bft) S - #0 min. #6 min. 2 W/m 13,1 C 20,9 C 11,3 km/h (2 Bft) 99 %